| time (UTC) | temp C | wind direction | speed KPH | gust KPH | rain 1hr cm | rain 24hr cm | rain mn cm | humidity % | barometer mb |
| 20260510213929 | 13 | 173 | 1.6 | 3.2 | 0.00 | 0.00 | 0.00 | 40 | 1018.7 |
| 20260510213426 | 13 | 26 | 1.6 | 1.6 | 0.00 | 0.00 | 0.00 | 34 | 1018.5 |
| 20260510212922 | 13 | 108 | 6.4 | 6.4 | 0.00 | 0.00 | 0.00 | 31 | 1018.6 |
| 20260510212420 | 13 | 54 | 3.2 | 4.8 | 0.00 | 0.00 | 0.00 | 35 | 1018.4 |
| 20260510211916 | 13 | 223 | 3.2 | 3.2 | 0.00 | 0.00 | 0.00 | 33 | 1018.2 |
| 20260510211414 | 14 | 213 | 1.6 | 1.6 | 0.00 | 0.00 | 0.00 | 34 | 1018.2 |
| 20260510210914 | 15 | 179 | 1.6 | 1.6 | 0.00 | 0.00 | 0.00 | 32 | 1018.1 |
| 20260510210409 | 16 | 350 | 1.6 | 1.6 | 0.00 | 0.00 | 0.00 | 32 | 1018.2 |
| 20260510205907 | 16 | 348 | 1.6 | 1.6 | 0.00 | 0.00 | 0.00 | 32 | 1018.1 |
| 20260510205403 | 15 | 95 | 1.6 | 1.6 | 0.00 | 0.00 | 0.00 | 30 | 1018.1 |
| 20260510204859 | 15 | 312 | 3.2 | 3.2 | 0.00 | 0.00 | 0.00 | 31 | 1018.3 |
| 20260510204356 | 15 | 256 | 4.8 | 4.8 | 0.00 | 0.00 | 0.00 | 34 | 1018.3 |
| 20260510203853 | 15 | 282 | 3.2 | 4.8 | 0.00 | 0.00 | 0.00 | 34 | 1018.3 |
| 20260510203351 | 14 | 207 | 1.6 | 1.6 | 0.00 | 0.00 | 0.00 | 32 | 1018.3 |
| 20260510202851 | 14 | 100 | 4.8 | 11.3 | 0.00 | 0.00 | 0.00 | 29 | 1018.3 |
| 20260510202346 | 14 | 294 | 3.2 | 3.2 | 0.00 | 0.00 | 0.00 | 33 | 1018.4 |
| 20260510201843 | 14 | 53 | 1.6 | 1.6 | 0.00 | 0.00 | 0.00 | 35 | 1018.6 |
| 20260510201341 | 14 | 69 | 1.6 | 1.6 | 0.00 | 0.00 | 0.00 | 35 | 1018.3 |
| 20260510200837 | 15 | 236 | 3.2 | 3.2 | 0.00 | 0.00 | 0.00 | 35 | 1018.3 |
| 20260510200336 | 15 | 223 | 0.0 | 0.0 | 0.00 | 0.00 | 0.00 | 28 | 1018.5 |
| 20260510195831 | 14 | 221 | 3.2 | 3.2 | 0.00 | 0.00 | 0.00 | 31 | 1018.5 |
| 20260510195328 | 14 | 255 | 3.2 | 3.2 | 0.00 | 0.00 | 0.00 | 31 | 1018.4 |
| 20260510194823 | 15 | 302 | 0.0 | 1.6 | 0.00 | 0.00 | 0.00 | 29 | 1018.7 |
| 20260510194319 | 15 | 209 | 3.2 | 3.2 | 0.00 | 0.00 | 0.00 | 35 | 1018.4 |
| 20260510193815 | 15 | 145 | 1.6 | 1.6 | 0.00 | 0.00 | 0.00 | 31 | 1018.6 |
| 20260510193310 | 14 | 184 | 0.0 | 0.0 | 0.00 | 0.00 | 0.00 | 32 | 1018.7 |
| 20260510192806 | 14 | 288 | 4.8 | 4.8 | 0.00 | 0.00 | 0.00 | 29 | 1018.7 |
| 20260510192301 | 14 | 286 | 8.0 | 12.9 | 0.00 | 0.00 | 0.00 | 29 | 1018.8 |
| 20260510191758 | 14 | 349 | 1.6 | 3.2 | 0.00 | 0.00 | 0.00 | 30 | 1018.7 |
| 20260510191254 | 14 | 222 | 3.2 | 4.8 | 0.00 | 0.00 | 0.00 | 35 | 1018.6 |
| 20260510190752 | 14 | 255 | 3.2 | 4.8 | 0.00 | 0.00 | 0.00 | 34 | 1018.7 |
| 20260510190248 | 15 | 89 | 1.6 | 1.6 | 0.00 | 0.00 | 0.00 | 32 | 1018.8 |
| 20260510185745 | 14 | 207 | 3.2 | 4.8 | 0.00 | 0.00 | 0.00 | 35 | 1018.6 |
| 20260510185243 | 13 | 335 | 1.6 | 1.6 | 0.00 | 0.00 | 0.00 | 33 | 1018.7 |
| 20260510184739 | 13 | 269 | 1.6 | 1.6 | 0.00 | 0.00 | 0.00 | 35 | 1018.6 |
| 20260510184237 | 13 | 279 | 3.2 | 4.8 | 0.00 | 0.00 | 0.00 | 33 | 1018.5 |
| 20260510183731 | 15 | 288 | 6.4 | 9.7 | 0.00 | 0.00 | 0.00 | 29 | 1018.4 |
| 20260510183226 | 14 | 68 | 1.6 | 1.6 | 0.00 | 0.00 | 0.00 | 33 | 1018.4 |
| 20260510182723 | 13 | 62 | 3.2 | 3.2 | 0.00 | 0.00 | 0.00 | 33 | 1018.3 |
| 20260510182219 | 14 | 324 | 3.2 | 4.8 | 0.00 | 0.00 | 0.00 | 35 | 1018.5 |
| 20260510181716 | 15 | 328 | 3.2 | 4.8 | 0.00 | 0.00 | 0.00 | 31 | 1018.3 |
| 20260510181213 | 14 | 259 | 1.6 | 1.6 | 0.00 | 0.00 | 0.00 | 33 | 1018.4 |
| 20260510180708 | 13 | 281 | 4.8 | 4.8 | 0.00 | 0.00 | 0.00 | 33 | 1018.4 |
| 20260510180206 | 14 | 356 | 1.6 | 1.6 | 0.00 | 0.00 | 0.00 | 33 | 1018.3 |
| 20260510175702 | 14 | 12 | 1.6 | 1.6 | 0.00 | 0.00 | 0.00 | 33 | 1018.1 |
| 20260510175158 | 15 | 221 | 8.0 | 11.3 | 0.00 | 0.00 | 0.00 | 28 | 1018.2 |
| 20260510174655 | 15 | 270 | 6.4 | 6.4 | 0.00 | 0.00 | 0.00 | 35 | 1018.0 |
| 20260510174153 | 15 | 236 | 1.6 | 1.6 | 0.00 | 0.00 | 0.00 | 32 | 1018.1 |
| 20260510173649 | 15 | 155 | 6.4 | 6.4 | 0.00 | 0.00 | 0.00 | 32 | 1018.2 |
| 20260510173145 | 13 | 69 | 1.6 | 1.6 | 0.00 | 0.00 | 0.00 | 32 | 1018.2 |
| 20260510172640 | 14 | 285 | 1.6 | 1.6 | 0.00 | 0.00 | 0.00 | 32 | 1018.4 |
| 20260510172137 | 15 | 343 | 6.4 | 6.4 | 0.00 | 0.00 | 0.00 | 28 | 1018.5 |
| 20260510171634 | 15 | 304 | 3.2 | 3.2 | 0.00 | 0.00 | 0.00 | 32 | 1018.2 |
| 20260510171131 | 14 | 226 | 3.2 | 3.2 | 0.00 | 0.00 | 0.00 | 30 | 1018.2 |
| 20260510170627 | 15 | 85 | 1.6 | 3.2 | 0.00 | 0.00 | 0.00 | 29 | 1018.4 |
| 20260510170124 | 15 | 302 | 6.4 | 9.7 | 0.00 | 0.00 | 0.00 | 30 | 1018.5 |
| 20260510165620 | 14 | 205 | 3.2 | 3.2 | 0.00 | 0.00 | 0.00 | 33 | 1018.2 |
| 20260510165115 | 14 | 291 | 4.8 | 6.4 | 0.00 | 0.00 | 0.00 | 30 | 1018.5 |
| 20260510164613 | 14 | 38 | 4.8 | 6.4 | 0.00 | 0.00 | 0.00 | 33 | 1018.3 |
| 20260510164110 | 15 | 72 | 3.2 | 4.8 | 0.00 | 0.00 | 0.00 | 34 | 1018.6 |
| 20260510163605 | 13 | 17 | 1.6 | 1.6 | 0.00 | 0.00 | 0.00 | 36 | 1018.4 |
| 20260510163102 | 14 | 82 | 0.0 | 1.6 | 0.00 | 0.00 | 0.00 | 33 | 1018.3 |
| 20260510162556 | 15 | 143 | 3.2 | 4.8 | 0.00 | 0.00 | 0.00 | 34 | 1018.5 |
| 20260510162053 | 14 | 95 | 3.2 | 3.2 | 0.00 | 0.00 | 0.00 | 36 | 1018.8 |
| 20260510161548 | 13 | 165 | 1.6 | 3.2 | 0.00 | 0.00 | 0.00 | 39 | 1018.3 |
| 20260510161046 | 13 | 82 | 3.2 | 3.2 | 0.00 | 0.00 | 0.00 | 33 | 1018.4 |
| 20260510160543 | 13 | 329 | 1.6 | 1.6 | 0.00 | 0.00 | 0.00 | 33 | 1018.4 |
| 20260510160042 | 13 | 191 | 6.4 | 9.7 | 0.00 | 0.00 | 0.00 | 31 | 1018.4 |
| 20260510155539 | 13 | 135 | 1.6 | 3.2 | 0.00 | 0.00 | 0.00 | 37 | 1018.4 |
| 20260510155036 | 13 | 255 | 6.4 | 11.3 | 0.00 | 0.00 | 0.00 | 34 | 1018.4 |
| 20260510154531 | 12 | 252 | 3.2 | 4.8 | 0.00 | 0.00 | 0.00 | 36 | 1018.3 |
| 20260510154026 | 13 | 92 | 4.8 | 4.8 | 0.00 | 0.00 | 0.00 | 35 | 1018.4 |
| 20260510153521 | 12 | 73 | 1.6 | 3.2 | 0.00 | 0.00 | 0.00 | 35 | 1018.3 |
| 20260510153019 | 13 | 291 | 6.4 | 6.4 | 0.00 | 0.00 | 0.00 | 34 | 1018.0 |
| 20260510152516 | 13 | 260 | 4.8 | 6.4 | 0.00 | 0.00 | 0.00 | 36 | 1018.1 |
| 20260510152012 | 13 | 252 | 4.8 | 4.8 | 0.00 | 0.00 | 0.00 | 34 | 1018.0 |
| 20260510151509 | 13 | 217 | 3.2 | 3.2 | 0.00 | 0.00 | 0.00 | 35 | 1018.4 |
| 20260510151007 | 13 | 207 | 1.6 | 1.6 | 0.00 | 0.00 | 0.00 | 36 | 1018.1 |
| 20260510150501 | 13 | 159 | 3.2 | 4.8 | 0.00 | 0.00 | 0.00 | 36 | 1018.0 |
| 20260510145957 | 13 | 148 | 3.2 | 3.2 | 0.00 | 0.00 | 0.00 | 36 | 1018.0 |
| 20260510145454 | 12 | 271 | 4.8 | 4.8 | 0.00 | 0.00 | 0.00 | 39 | 1017.9 |
| 20260510144950 | 12 | 223 | 3.2 | 3.2 | 0.00 | 0.00 | 0.00 | 40 | 1017.9 |
| 20260510144448 | 12 | 198 | 4.8 | 4.8 | 0.00 | 0.00 | 0.00 | 36 | 1018.0 |
| 20260510143943 | 12 | 2 | 3.2 | 3.2 | 0.00 | 0.00 | 0.00 | 41 | 1017.9 |
| 20260510143439 | 12 | 47 | 1.6 | 1.6 | 0.00 | 0.00 | 0.00 | 40 | 1018.0 |
| 20260510142936 | 12 | 24 | 1.6 | 1.6 | 0.00 | 0.00 | 0.00 | 38 | 1018.1 |
| 20260510142433 | 12 | 103 | 1.6 | 1.6 | 0.00 | 0.00 | 0.00 | 41 | 1017.7 |
| 20260510141929 | 12 | 114 | 3.2 | 3.2 | 0.00 | 0.00 | 0.00 | 36 | 1017.9 |
| 20260510141426 | 12 | 277 | 1.6 | 1.6 | 0.00 | 0.00 | 0.00 | 42 | 1017.9 |
| 20260510140923 | 11 | 213 | 1.6 | 3.2 | 0.00 | 0.00 | 0.00 | 44 | 1017.7 |
| 20260510140420 | 11 | 316 | 3.2 | 4.8 | 0.00 | 0.00 | 0.00 | 41 | 1017.7 |
| 20260510135919 | 11 | 287 | 3.2 | 4.8 | 0.00 | 0.00 | 0.00 | 41 | 1017.8 |
| 20260510135415 | 11 | 193 | 1.6 | 3.2 | 0.00 | 0.00 | 0.00 | 37 | 1017.8 |
| 20260510134912 | 11 | 165 | 1.6 | 3.2 | 0.00 | 0.00 | 0.00 | 40 | 1017.9 |
| 20260510134409 | 11 | 43 | 3.2 | 3.2 | 0.00 | 0.00 | 0.00 | 42 | 1017.7 |
| 20260510133905 | 11 | 74 | 1.6 | 3.2 | 0.00 | 0.00 | 0.00 | 43 | 1017.7 |
| 20260510133402 | 11 | 204 | 4.8 | 4.8 | 0.00 | 0.00 | 0.00 | 40 | 1017.6 |
| 20260510132857 | 11 | 129 | 1.6 | 1.6 | 0.00 | 0.00 | 0.00 | 41 | 1017.5 |
| 20260510132355 | 10 | 151 | 0.0 | 1.6 | 0.00 | 0.00 | 0.00 | 46 | 1017.5 |
| 20260510131852 | 10 | 188 | 1.6 | 3.2 | 0.00 | 0.00 | 0.00 | 43 | 1017.2 |
| 20260510131349 | 10 | 119 | 0.0 | 1.6 | 0.00 | 0.00 | 0.00 | 43 | 1017.3 |
| 20260510130845 | 11 | 172 | 3.2 | 1.6 | 0.00 | 0.00 | 0.00 | 47 | 1017.3 |
| 20260510130343 | 10 | 109 | 0.0 | 1.6 | 0.00 | 0.00 | 0.00 | 49 | 1017.2 |
| 20260510125840 | 10 | 179 | 1.6 | 3.2 | 0.00 | 0.00 | 0.00 | 44 | 1017.1 |
| 20260510125336 | 10 | 196 | 1.6 | 1.6 | 0.00 | 0.00 | 0.00 | 46 | 1016.9 |
| 20260510124833 | 10 | 203 | 3.2 | 3.2 | 0.00 | 0.00 | 0.00 | 47 | 1017.1 |
| 20260510124330 | 9 | 58 | 3.2 | 3.2 | 0.00 | 0.00 | 0.00 | 52 | 1017.1 |
| 20260510123825 | 8 | 170 | 1.6 | 1.6 | 0.00 | 0.00 | 0.00 | 52 | 1017.2 |
| 20260510123321 | 8 | 249 | 1.6 | 1.6 | 0.00 | 0.00 | 0.00 | 57 | 1017.0 |
| 20260510122817 | 8 | 282 | 1.6 | 1.6 | 0.00 | 0.00 | 0.00 | 54 | 1017.1 |
| 20260510122314 | 7 | 308 | 0.0 | 0.0 | 0.00 | 0.00 | 0.00 | 58 | 1017.0 |
| 20260510121810 | 7 | 114 | 0.0 | 0.0 | 0.00 | 0.00 | 0.00 | 65 | 1016.8 |
| 20260510121308 | 6 | 60 | 1.6 | 1.6 | 0.00 | 0.00 | 0.00 | 63 | 1016.7 |
| 20260510120804 | 6 | 169 | 1.6 | 3.2 | 0.00 | 0.00 | 0.00 | 65 | 1016.7 |
| 20260510120301 | 6 | 167 | 1.6 | 1.6 | 0.00 | 0.00 | 0.00 | 65 | 1016.8 |
| 20260510115757 | 6 | 76 | 0.0 | 0.0 | 0.00 | 0.00 | 0.00 | 66 | 1016.7 |
| 20260510115255 | 6 | 70 | 0.0 | 0.0 | 0.00 | 0.00 | 0.00 | 71 | 1016.6 |
| 20260510114755 | 5 | 70 | 0.0 | 0.0 | 0.00 | 0.00 | 0.00 | 73 | 1016.6 |
| 20260510114253 | 4 | 69 | 0.0 | 0.0 | 0.00 | 0.00 | 0.00 | 76 | 1016.5 |
| 20260510113748 | 3 | 69 | 0.0 | 0.0 | 0.00 | 0.00 | 0.00 | 81 | 1016.4 |
| 20260510113245 | 2 | 69 | 0.0 | 0.0 | 0.00 | 0.00 | 0.00 | 84 | 1016.3 |
| 20260510112741 | 2 | 69 | 0.0 | 0.0 | 0.00 | 0.00 | 0.00 | 86 | 1016.1 |
| 20260510112238 | 2 | 69 | 0.0 | 0.0 | 0.00 | 0.00 | 0.00 | 85 | 1016.2 |
| 20260510111734 | 2 | 69 | 0.0 | 0.0 | 0.00 | 0.00 | 0.00 | 86 | 1016.1 |
| 20260510111232 | 2 | 69 | 0.0 | 0.0 | 0.00 | 0.00 | 0.00 | 90 | 1015.9 |
| 20260510110731 | 2 | 69 | 0.0 | 0.0 | 0.00 | 0.00 | 0.00 | 95 | 1016.0 |
| 20260510110229 | 1 | 69 | 0.0 | 0.0 | 0.00 | 0.00 | 0.00 | 95 | 1016.0 |
| 20260510105728 | 0 | 69 | 0.0 | 0.0 | 0.00 | 0.00 | 0.00 | 95 | 1015.9 |
| 20260510105224 | 0 | 69 | 0.0 | 0.0 | 0.00 | 0.00 | 0.00 | 95 | 1015.7 |
| 20260510104720 | -1 | 69 | 0.0 | 0.0 | 0.00 | 0.00 | 0.00 | 94 | 1015.8 |
| 20260510104218 | -1 | 69 | 0.0 | 0.0 | 0.00 | 0.00 | 0.00 | 94 | 1015.9 |
| 20260510103714 | -1 | 69 | 0.0 | 0.0 | 0.00 | 0.00 | 0.00 | 94 | 1015.5 |
| 20260510103211 | -1 | 69 | 0.0 | 0.0 | 0.00 | 0.00 | 0.00 | 93 | 1015.5 |
| 20260510102711 | -1 | 69 | 0.0 | 0.0 | 0.00 | 0.00 | 0.00 | 93 | 1015.5 |
| 20260510102207 | -1 | 69 | 0.0 | 0.0 | 0.00 | 0.00 | 0.00 | 93 | 1015.5 |
| 20260510101705 | -1 | 69 | 0.0 | 0.0 | 0.00 | 0.00 | 0.00 | 93 | 1015.3 |
| 20260510101203 | -1 | 69 | 0.0 | 0.0 | 0.00 | 0.00 | 0.00 | 93 | 1015.1 |
| 20260510100658 | -1 | 69 | 0.0 | 0.0 | 0.00 | 0.00 | 0.00 | 93 | 1015.3 |
| 20260510100156 | -1 | 69 | 0.0 | 0.0 | 0.00 | 0.00 | 0.00 | 93 | 1015.0 |
| 20260510095652 | -1 | 69 | 0.0 | 0.0 | 0.00 | 0.00 | 0.00 | 92 | 1015.1 |
| 20260510095147 | -1 | 69 | 0.0 | 0.0 | 0.00 | 0.00 | 0.00 | 91 | 1014.8 |
| 20260510094646 | -1 | 69 | 0.0 | 0.0 | 0.00 | 0.00 | 0.00 | 91 | 1014.9 |
| 20260510094142 | 0 | 69 | 0.0 | 0.0 | 0.00 | 0.00 | 0.00 | 91 | 1014.9 |
| 20260510093638 | 0 | 69 | 0.0 | 0.0 | 0.00 | 0.00 | 0.00 | 91 | 1014.9 |
| 20260510093135 | 0 | 69 | 0.0 | 0.0 | 0.00 | 0.00 | 0.00 | 90 | 1014.9 |
| 20260510092632 | 0 | 69 | 0.0 | 0.0 | 0.00 | 0.00 | 0.00 | 89 | 1014.7 |
| 20260510092127 | 0 | 69 | 0.0 | 0.0 | 0.00 | 0.00 | 0.00 | 88 | 1014.7 |
| 20260510091623 | 0 | 69 | 0.0 | 0.0 | 0.00 | 0.00 | 0.00 | 87 | 1014.7 |
| 20260510091120 | 0 | 69 | 0.0 | 0.0 | 0.00 | 0.00 | 0.00 | 87 | 1014.8 |
| 20260510090617 | 0 | 69 | 0.0 | 0.0 | 0.00 | 0.00 | 0.00 | 87 | 1014.8 |
| 20260510090113 | 0 | 69 | 0.0 | 0.0 | 0.00 | 0.00 | 0.00 | 88 | 1014.6 |
| 20260510085608 | 0 | 69 | 0.0 | 0.0 | 0.00 | 0.00 | 0.00 | 88 | 1014.5 |
| 20260510085103 | 0 | 69 | 0.0 | 0.0 | 0.00 | 0.00 | 0.00 | 87 | 1014.4 |
| 20260510084600 | 0 | 69 | 0.0 | 0.0 | 0.00 | 0.00 | 0.00 | 86 | 1014.2 |
| 20260510084057 | 0 | 69 | 0.0 | 0.0 | 0.00 | 0.00 | 0.00 | 86 | 1014.3 |
| 20260510083553 | 1 | 69 | 0.0 | 0.0 | 0.00 | 0.00 | 0.00 | 84 | 1014.1 |
| 20260510083050 | 1 | 69 | 0.0 | 0.0 | 0.00 | 0.00 | 0.00 | 83 | 1013.9 |
| 20260510082546 | 1 | 69 | 0.0 | 0.0 | 0.00 | 0.00 | 0.00 | 83 | 1014.0 |
| 20260510082042 | 1 | 69 | 0.0 | 0.0 | 0.00 | 0.00 | 0.00 | 84 | 1013.7 |
| 20260510081537 | 1 | 69 | 0.0 | 0.0 | 0.00 | 0.00 | 0.00 | 83 | 1013.7 |
| 20260510081033 | 1 | 69 | 0.0 | 0.0 | 0.00 | 0.00 | 0.00 | 81 | 1013.7 |
| 20260510080532 | 2 | 69 | 0.0 | 0.0 | 0.00 | 0.00 | 0.00 | 82 | 1013.8 |
| 20260510080030 | 2 | 69 | 0.0 | 0.0 | 0.00 | 0.00 | 0.00 | 80 | 1013.5 |
| 20260510075527 | 2 | 69 | 0.0 | 0.0 | 0.00 | 0.00 | 0.00 | 76 | 1013.4 |
| 20260510075023 | 2 | 69 | 0.0 | 0.0 | 0.00 | 0.00 | 0.00 | 78 | 1013.3 |
| 20260510074521 | 2 | 69 | 0.0 | 0.0 | 0.00 | 0.00 | 0.00 | 78 | 1013.2 |
| 20260510074016 | 2 | 69 | 0.0 | 0.0 | 0.00 | 0.00 | 0.00 | 77 | 1013.4 |
| 20260510073513 | 2 | 69 | 0.0 | 0.0 | 0.00 | 0.00 | 0.00 | 77 | 1013.4 |
| 20260510073010 | 2 | 69 | 0.0 | 0.0 | 0.00 | 0.00 | 0.00 | 74 | 1013.3 |
| 20260510072506 | 2 | 69 | 0.0 | 0.0 | 0.00 | 0.00 | 0.00 | 75 | 1013.4 |
| 20260510072001 | 2 | 69 | 0.0 | 0.0 | 0.00 | 0.00 | 0.00 | 75 | 1013.1 |
| 20260510071458 | 3 | 69 | 0.0 | 0.0 | 0.00 | 0.00 | 0.00 | 74 | 1013.0 |
| 20260510070956 | 3 | 69 | 0.0 | 0.0 | 0.00 | 0.00 | 0.00 | 72 | 1012.8 |
| 20260510070453 | 4 | 69 | 0.0 | 0.0 | 0.00 | 0.00 | 0.00 | 71 | 1013.1 |
| 20260510065948 | 4 | 69 | 0.0 | 0.0 | 0.00 | 0.00 | 0.00 | 65 | 1012.8 |
| 20260510065446 | 4 | 69 | 0.0 | 0.0 | 0.00 | 0.00 | 0.00 | 67 | 1012.9 |
| 20260510064942 | 3 | 69 | 0.0 | 0.0 | 0.00 | 0.00 | 0.00 | 71 | 1012.7 |
| 20260510064440 | 3 | 69 | 0.0 | 0.0 | 0.00 | 0.00 | 0.00 | 72 | 1012.9 |
| 20260510063936 | 3 | 69 | 0.0 | 0.0 | 0.00 | 0.00 | 0.00 | 76 | 1012.7 |
| 20260510063432 | 3 | 69 | 0.0 | 0.0 | 0.00 | 0.00 | 0.00 | 81 | 1012.9 |
| 20260510062931 | 3 | 69 | 1.6 | 1.6 | 0.00 | 0.00 | 0.00 | 79 | 1012.7 |
| 20260510062430 | 3 | 58 | 0.0 | 0.0 | 0.00 | 0.00 | 0.00 | 82 | 1012.6 |
| 20260510061926 | 4 | 58 | 0.0 | 0.0 | 0.00 | 0.00 | 0.00 | 80 | 1012.6 |
| 20260510061423 | 4 | 58 | 0.0 | 0.0 | 0.00 | 0.00 | 0.00 | 76 | 1012.3 |
| 20260510060919 | 4 | 58 | 0.0 | 0.0 | 0.00 | 0.00 | 0.00 | 76 | 1012.3 |
| 20260510060416 | 4 | 58 | 0.0 | 0.0 | 0.00 | 0.00 | 0.00 | 79 | 1012.3 |
| 20260510055913 | 4 | 58 | 0.0 | 0.0 | 0.00 | 0.00 | 0.00 | 79 | 1012.2 |
| 20260510055408 | 4 | 58 | 0.0 | 0.0 | 0.00 | 0.00 | 0.00 | 80 | 1012.0 |
| 20260510054906 | 5 | 58 | 0.0 | 0.0 | 0.00 | 0.00 | 0.00 | 74 | 1012.0 |
| 20260510054402 | 5 | 58 | 0.0 | 0.0 | 0.00 | 0.00 | 0.00 | 73 | 1012.0 |
| 20260510053857 | 5 | 58 | 0.0 | 0.0 | 0.00 | 0.00 | 0.00 | 74 | 1011.9 |
| 20260510053353 | 5 | 58 | 0.0 | 0.0 | 0.00 | 0.00 | 0.00 | 72 | 1011.7 |
| 20260510052849 | 6 | 58 | 0.0 | 1.6 | 0.00 | 0.00 | 0.00 | 73 | 1011.7 |
| 20260510052345 | 6 | 58 | 0.0 | 0.0 | 0.00 | 0.00 | 0.00 | 70 | 1011.7 |
| 20260510051841 | 6 | 58 | 0.0 | 0.0 | 0.00 | 0.00 | 0.00 | 68 | 1011.5 |
| 20260510051338 | 6 | 58 | 0.0 | 0.0 | 0.00 | 0.00 | 0.00 | 68 | 1011.7 |
| 20260510050835 | 6 | 58 | 0.0 | 0.0 | 0.00 | 0.00 | 0.00 | 67 | 1011.5 |
| 20260510050332 | 6 | 58 | 0.0 | 0.0 | 0.00 | 0.00 | 0.00 | 68 | 1011.2 |
| 20260510045829 | 6 | 49 | 0.0 | 0.0 | 0.00 | 0.00 | 0.00 | 68 | 1011.0 |
| 20260510045325 | 6 | 48 | 0.0 | 1.6 | 0.00 | 0.00 | 0.00 | 65 | 1011.1 |
| 20260510044823 | 6 | 48 | 1.6 | 1.6 | 0.00 | 0.00 | 0.00 | 67 | 1010.9 |
| 20260510044319 | 6 | 37 | 1.6 | 3.2 | 0.00 | 0.00 | 0.00 | 69 | 1011.0 |
| 20260510043816 | 6 | 31 | 0.0 | 0.0 | 0.00 | 0.00 | 0.00 | 69 | 1010.8 |
| 20260510043312 | 6 | 350 | 0.0 | 0.0 | 0.00 | 0.00 | 0.00 | 68 | 1010.6 |
| 20260510042810 | 6 | 346 | 0.0 | 0.0 | 0.00 | 0.00 | 0.00 | 76 | 1010.5 |
| 20260510042307 | 6 | 346 | 0.0 | 0.0 | 0.00 | 0.00 | 0.00 | 79 | 1010.6 |
| 20260510041802 | 6 | 346 | 0.0 | 0.0 | 0.00 | 0.00 | 0.00 | 79 | 1010.4 |
| 20260510041259 | 6 | 321 | 0.0 | 0.0 | 0.00 | 0.00 | 0.00 | 80 | 1010.4 |
| 20260510040757 | 6 | 321 | 0.0 | 0.0 | 0.00 | 0.00 | 0.00 | 79 | 1010.2 |
| 20260510040253 | 5 | 321 | 0.0 | 0.0 | 0.00 | 0.00 | 0.00 | 77 | 1010.2 |
| 20260510035749 | 6 | 321 | 0.0 | 0.0 | 0.00 | 0.03 | 0.03 | 77 | 1010.1 |
| 20260510035245 | 6 | 321 | 0.0 | 0.0 | 0.00 | 0.03 | 0.03 | 77 | 1009.8 |
| 20260510034741 | 6 | 321 | 0.0 | 0.0 | 0.00 | 0.03 | 0.03 | 76 | 1009.7 |
| 20260510034239 | 6 | 321 | 0.0 | 0.0 | 0.00 | 0.03 | 0.03 | 76 | 1009.7 |
| 20260510033734 | 6 | 321 | 0.0 | 0.0 | 0.00 | 0.03 | 0.03 | 73 | 1009.6 |
| 20260510033232 | 7 | 321 | 0.0 | 0.0 | 0.00 | 0.03 | 0.03 | 70 | 1009.4 |
| 20260510032728 | 7 | 321 | 0.0 | 0.0 | 0.00 | 0.03 | 0.03 | 72 | 1009.5 |
| 20260510032224 | 7 | 321 | 0.0 | 0.0 | 0.00 | 0.03 | 0.03 | 69 | 1009.3 |
| 20260510031720 | 7 | 321 | 0.0 | 0.0 | 0.00 | 0.03 | 0.03 | 68 | 1009.2 |
| 20260510031216 | 8 | 321 | 0.0 | 0.0 | 0.00 | 0.03 | 0.03 | 65 | 1009.0 |
| 20260510030715 | 8 | 321 | 0.0 | 0.0 | 0.00 | 0.03 | 0.03 | 61 | 1009.0 |
| 20260510030213 | 9 | 321 | 0.0 | 0.0 | 0.00 | 0.03 | 0.03 | 61 | 1009.1 |
| 20260510025710 | 10 | 321 | 0.0 | 0.0 | 0.00 | 0.03 | 0.03 | 58 | 1008.9 |
| 20260510025208 | 10 | 320 | 0.0 | 0.0 | 0.00 | 0.03 | 0.03 | 56 | 1008.9 |
| 20260510024704 | 10 | 320 | 0.0 | 0.0 | 0.00 | 0.03 | 0.03 | 56 | 1009.0 |
| 20260510024201 | 10 | 320 | 0.0 | 0.0 | 0.00 | 0.03 | 0.03 | 54 | 1008.9 |
| 20260510023657 | 10 | 320 | 1.6 | 1.6 | 0.00 | 0.03 | 0.03 | 52 | 1008.7 |
| 20260510023154 | 10 | 315 | 0.0 | 0.0 | 0.00 | 0.03 | 0.03 | 55 | 1008.6 |
| 20260510022649 | 10 | 315 | 0.0 | 0.0 | 0.00 | 0.03 | 0.03 | 53 | 1008.5 |
| 20260510022144 | 11 | 316 | 0.0 | 0.0 | 0.00 | 0.03 | 0.03 | 53 | 1008.3 |
| 20260510021640 | 11 | 316 | 0.0 | 0.0 | 0.00 | 0.03 | 0.03 | 51 | 1008.4 |
| 20260510021138 | 12 | 316 | 0.0 | 0.0 | 0.00 | 0.03 | 0.03 | 50 | 1008.1 |
| 20260510020637 | 12 | 316 | 0.0 | 0.0 | 0.00 | 0.03 | 0.03 | 49 | 1008.1 |
| 20260510020133 | 13 | 317 | 1.6 | 1.6 | 0.00 | 0.03 | 0.03 | 46 | 1007.8 |
| 20260510015629 | 13 | 302 | 1.6 | 1.6 | 0.00 | 0.03 | 0.03 | 44 | 1007.7 |
| 20260510015126 | 13 | 110 | 1.6 | 3.2 | 0.00 | 0.03 | 0.03 | 46 | 1007.4 |
| 20260510014621 | 13 | 99 | 1.6 | 1.6 | 0.00 | 0.03 | 0.03 | 48 | 1007.6 |
| 20260510014119 | 13 | 190 | 3.2 | 3.2 | 0.00 | 0.03 | 0.03 | 46 | 1007.4 |
| 20260510013619 | 13 | 243 | 0.0 | 0.0 | 0.00 | 0.03 | 0.03 | 46 | 1007.1 |
| 20260510013115 | 13 | 258 | 0.0 | 0.0 | 0.00 | 0.03 | 0.03 | 46 | 1007.0 |
| 20260510012614 | 13 | 28 | 1.6 | 1.6 | 0.00 | 0.03 | 0.03 | 45 | 1006.7 |
| 20260510012111 | 13 | 49 | 3.2 | 3.2 | 0.00 | 0.03 | 0.03 | 46 | 1006.6 |
| 20260510011610 | 13 | 203 | 3.2 | 3.2 | 0.00 | 0.03 | 0.03 | 46 | 1006.5 |
| 20260510011107 | 14 | 255 | 0.0 | 1.6 | 0.00 | 0.03 | 0.03 | 44 | 1006.3 |
| 20260510010603 | 14 | 255 | 1.6 | 3.2 | 0.00 | 0.03 | 0.03 | 44 | 1006.2 |
| 20260510010101 | 14 | 242 | 4.8 | 4.8 | 0.00 | 0.03 | 0.03 | 44 | 1006.1 |
| 20260510005556 | 14 | 122 | 3.2 | 3.2 | 0.00 | 0.03 | 0.03 | 44 | 1005.9 |
| 20260510005054 | 14 | 53 | 1.6 | 1.6 | 0.00 | 0.03 | 0.03 | 43 | 1005.8 |
| 20260510004551 | 15 | 253 | 3.2 | 3.2 | 0.00 | 0.03 | 0.03 | 42 | 1005.5 |
| 20260510004049 | 15 | 243 | 1.6 | 1.6 | 0.00 | 0.03 | 0.03 | 41 | 1005.8 |
| 20260510003545 | 15 | 351 | 3.2 | 3.2 | 0.00 | 0.03 | 0.03 | 41 | 1005.5 |
| 20260510003041 | 15 | 97 | 3.2 | 3.2 | 0.00 | 0.03 | 0.03 | 43 | 1005.6 |
| 20260510002537 | 15 | 311 | 4.8 | 6.4 | 0.00 | 0.03 | 0.03 | 41 | 1005.3 |
| 20260510002034 | 15 | 307 | 3.2 | 4.8 | 0.00 | 0.03 | 0.03 | 40 | 1005.4 |
| 20260510001531 | 16 | 130 | 3.2 | 6.4 | 0.00 | 0.03 | 0.03 | 37 | 1005.0 |
| 20260510001030 | 16 | 294 | 3.2 | 4.8 | 0.00 | 0.03 | 0.03 | 37 | 1004.9 |
| 20260510000524 | 16 | 298 | 0.0 | 0.0 | 0.00 | 0.03 | 0.03 | 37 | 1004.7 |
| 20260510000021 | 16 | 273 | 0.0 | 0.0 | 0.00 | 0.03 | 0.03 | 38 | 1004.5 |
| 20260509235518 | 17 | 300 | 3.2 | 4.8 | 0.00 | 0.03 | 0.03 | 36 | 1004.5 |
| 20260509235015 | 17 | 268 | 3.2 | 4.8 | 0.00 | 0.03 | 0.03 | 37 | 1004.2 |
| 20260509234511 | 17 | 294 | 3.2 | 3.2 | 0.00 | 0.03 | 0.03 | 35 | 1004.3 |
| 20260509234009 | 17 | 336 | 3.2 | 3.2 | 0.00 | 0.03 | 0.03 | 36 | 1004.3 |
| 20260509233506 | 17 | 307 | 3.2 | 3.2 | 0.00 | 0.03 | 0.03 | 36 | 1003.9 |
| 20260509233003 | 17 | 264 | 4.8 | 4.8 | 0.00 | 0.03 | 0.03 | 38 | 1004.0 |
| 20260509232500 | 17 | 194 | 3.2 | 4.8 | 0.00 | 0.03 | 0.03 | 36 | 1004.0 |
| 20260509231956 | 17 | 262 | 4.8 | 4.8 | 0.00 | 0.03 | 0.03 | 36 | 1003.8 |
| 20260509231453 | 17 | 6 | 1.6 | 1.6 | 0.00 | 0.03 | 0.03 | 35 | 1004.0 |
| 20260509230951 | 17 | 149 | 3.2 | 4.8 | 0.00 | 0.03 | 0.03 | 38 | 1003.8 |
| 20260509230447 | 17 | 207 | 3.2 | 3.2 | 0.00 | 0.03 | 0.03 | 37 | 1003.7 |
| 20260509225944 | 17 | 253 | 1.6 | 1.6 | 0.00 | 0.03 | 0.03 | 37 | 1003.7 |
| 20260509225440 | 18 | 269 | 3.2 | 3.2 | 0.00 | 0.03 | 0.03 | 34 | 1003.5 |
| 20260509224936 | 18 | 312 | 1.6 | 1.6 | 0.00 | 0.03 | 0.03 | 35 | 1003.5 |
| 20260509224431 | 19 | 275 | 1.6 | 1.6 | 0.00 | 0.03 | 0.03 | 36 | 1003.4 |
| 20260509223929 | 18 | 230 | 1.6 | 1.6 | 0.00 | 0.03 | 0.03 | 36 | 1003.5 |
| 20260509223425 | 18 | 243 | 4.8 | 6.4 | 0.00 | 0.03 | 0.03 | 34 | 1003.1 |
| 20260509222924 | 18 | 252 | 4.8 | 6.4 | 0.00 | 0.03 | 0.03 | 32 | 1003.3 |
| 20260509222424 | 19 | 37 | 1.6 | 3.2 | 0.00 | 0.03 | 0.03 | 32 | 1003.5 |
| 20260509221920 | 19 | 79 | 6.4 | 6.4 | 0.00 | 0.03 | 0.03 | 32 | 1003.3 |
| 20260509221417 | 19 | 246 | 9.7 | 11.3 | 0.00 | 0.03 | 0.03 | 32 | 1003.3 |
| 20260509220912 | 19 | 107 | 4.8 | 11.3 | 0.00 | 0.03 | 0.03 | 31 | 1003.3 |
| 20260509220408 | 20 | 230 | 4.8 | 4.8 | 0.00 | 0.03 | 0.03 | 33 | 1003.1 |
| 20260509215904 | 20 | 327 | 3.2 | 4.8 | 0.00 | 0.03 | 0.03 | 32 | 1003.2 |
| 20260509215400 | 20 | 28 | 3.2 | 3.2 | 0.00 | 0.03 | 0.03 | 33 | 1003.2 |
| 20260509214858 | 20 | 215 | 1.6 | 1.6 | 0.00 | 0.03 | 0.03 | 38 | 1002.8 |
| 20260509214355 | 20 | 273 | 4.8 | 6.4 | 0.00 | 0.03 | 0.03 | 33 | 1003.0 |